Regional Weather Roundup
Issued by NWS

Home | Current Version | Previous Version | Graphics & Text | Print | Product List | Glossary On
Versions: 1 2 3 4 5 6 7 8 9 10 11 12 13 14 15 16 17 18 19 20 21 22 23 24 25 26 27 28 29 30 31 32 33 34 35 36 37 38 39 40 41 42 43 44 45 46 47 48 49 50
000
ASUS43 KMPX 120410
RWRMN
WEATHER ROUNDUP FOR MINNESOTA
NATIONAL WEATHER SERVICE TWIN CITIES/CHANHASSEN MN
1000 PM CST THU FEB 11 2016


NOTE: "FAIR" INDICATES FEW OR NO CLOUDS BELOW 12,000 FEET WITH NO
SIGNIFICANT WEATHER AND/OR OBSTRUCTIONS TO VISIBILITY. N/A MEANS
CURRENT SKY AND/OR WEATHER CONDITIONS ARE NOT AVAILABLE.

MNZ060>063-068>070-120500-
   Twin Cities Metro

CITY           SKY/WX    TMP DP  RH WIND       PRES   REMARKS
TWIN CITIES    LGT SNOW  14   8  77 SW3       30.24S
ST PAUL        CLOUDY    14   8  77 W7        30.25F WCI   4
CRYSTAL        FLURRIES  15   9  76 W7        30.22F WCI   5
BLAINE         FLURRIES  16  10  79 W5        30.22S WCI   9
LAKEVILLE      CLOUDY    12   7  79 W3        30.23S
EDEN PRAIRIE   CLOUDY    15   6  67 SW3       30.22F
SOUTH ST PAUL  LGT SNOW  15  10  80 SW5       30.24S WCI   7
LAKE ELMO      LGT SNOW  16  12  86 W5        30.23S WCI   9
$$
MNZ001>005-007-008-013>017-022>024-027-028-120500-
   Northwest Minnesota

CITY           SKY/WX    TMP DP  RH WIND       PRES   REMARKS
BEMIDJI        LGT SNOW   8   4  85 W9        30.18S WCI  -6
HALLOCK        CLEAR      3   0  85 NW9       30.30R WCI -11
ROSEAU         CLEAR      1  -2  85 W8        30.23S WCI -12
WARROAD        CLEAR      3   0  85 W9        30.21S WCI -11
THIEF RVR FALL PTCLDY     7  -6  56 NW10      30.26S WCI  -8
CROOKSTON      CLOUDY     9   5  85 N12       30.31R WCI  -6
FOSSTON        FLURRIES   9   3  78 NW12      30.24R WCI  -6
DETROIT LAKES  FLURRIES  10   7  85 NW9       30.24R WCI  -2
MOORHEAD       CLOUDY    10   7  85 NW8       30.29S WCI  -1
PARK RAPIDS    CLOUDY     8   0  69 NW9       30.19R WCI  -5
MAHNOMEN       CLOUDY     8   4  84 NW7       30.24S WCI  -3
$$
MNZ006-009>011-018-025>026-120500-
   North Central Minnesota

CITY           SKY/WX    TMP DP  RH WIND       PRES   REMARKS
BAUDETTE       PTCLDY     2  -4  76 W10       30.17S WCI -14
FLAG ISLAND    CLEAR      1  -4  78 NW13      30.19R WCI -16
INTL FALLS     CLEAR      4  -3  73 NW15      30.13S WCI -14
WASKISH        CLEAR      3   0  85 W7        30.18S WCI  -9
LONGVILLE      CLOUDY    10   1  67 NW6       30.18S WCI   1
GRAND RAPIDS   CLOUDY     9   0  66 NW9       30.15R WCI  -5
CRANE LAKE     MOCLDY     7   1  78 NW5       30.13F WCI  -2
ORR            MOCLDY     7  -2  66 W8        30.08S WCI  -6
COOK           CLOUDY     7   1  78 W9        30.11S WCI  -7
WALKER         CLOUDY     8   1  74 W6        30.19R WCI  -2
$$
MNZ012-019>021-037-120500-
   Northeast Minnesota

CITY           SKY/WX    TMP DP  RH WIND       PRES   REMARKS
DULUTH         MOCLDY    11  -2  56 W10       30.10F WCI  -3
ELY            CLOUDY     7   0  72 W9        30.07F WCI  -7
HIBBING        CLOUDY     8   0  69 W10       30.12S WCI  -6
EVELETH        CLOUDY    10   0  61 W8        30.11F WCI  -1
DULUTH HARBOR  CLOUDY    16   1  53 W12       30.18F WCI   3
TWO HARBORS    CLOUDY    12   0  57 W5        30.09F WCI   4
SILVER BAY     CLEAR      9  -2  61 W3        30.07F
GRAND MARAIS     N/A      9   0  67 SW5       30.09F WCI   1
G MARAIS ARPRT PTCLDY     3  -6  66 W12G28    29.96F WCI -13
$$
MNZ029>031-032-039>041-046>048-054>057-064-120500-
   West Central Minnesota

CITY           SKY/WX    TMP DP  RH WIND       PRES   REMARKS
FERGUS FALLS   CLOUDY    12   7  79 NW12      30.29R WCI  -2
WHEATON        FLURRIES  14  10  85 NW9       30.30R WCI   2
MORRIS         LGT SNOW  14  10  85 NW9       30.23S WCI   2
ALEXANDRIA     CLOUDY    12   8  84 NW7       30.21R WCI   1
ELBOW LAKE     CLOUDY    12   9  87 W9        30.25R FOG     WCI   0
WADENA         CLOUDY    10   3  72 NW10      30.20S WCI  -3
GLENWOOD       FLURRIES  12  10  92 W5        30.21S WCI   4
APPLETON       CLOUDY    18  12  79 NW9       30.25R WCI   6
BENSON         FLURRIES  16  10  79 CALM      30.24R
ORTONVILLE     CLOUDY    14  10  85 N8        30.25S WCI   3
MADISON        CLOUDY    16  14  93 N9        30.26R WCI   4
WILLMAR        FLURRIES  18  14  86 NW6       30.23S WCI   9
$$
MNZ033>034-036-042>043-049>051-058-059-120500-
   Central Minnesota

CITY           SKY/WX    TMP DP  RH WIND       PRES   REMARKS
ST CLOUD       CLOUDY    13   9  84 SW6       30.21F WCI   4
SAUK CENTRE    CLOUDY    12   9  87 W3        30.21S
PAYNESVILLE    LGT SNOW  14  11  86 NW5       30.21S WCI   7
AITKIN         CLOUDY    16  -2  45 W3        30.16S
PINE RIVER     CLOUDY    10   1  67 NW5       30.21S WCI   2
BRAINERD       CLOUDY    13   3  64 NW8       30.18S WCI   2
STAPLES        CLOUDY    10   5  79 NW9       30.19S WCI  -2
LONG PRAIRIE   CLOUDY    12   9  85 W5        30.20S WCI   4
LITTLE FALLS   CLOUDY    14   9  79 W6        30.20F WCI   5
LITCHFIELD     MIX PCPN  16  12  86 CALM      30.22S
BUFFALO        FLURRIES  13  10  85 CALM      30.23F
MAPLE LAKE     FLURRIES  15  11  85 CALM      30.23S
$$
MNZ037-044-045-052-053-120500-
   East Central Minnesota

CITY           SKY/WX    TMP DP  RH WIND       PRES   REMARKS
PRINCETON      FLURRIES  14  10  85 SW6       30.21S WCI   5
MORA           CLOUDY    14   9  79 W6        30.21S WCI   5
CAMBRIDGE      FLURRIES  16   7  67 CALM      30.20S
RUSH CITY      CLOUDY    14   9  79 W5        30.21S WCI   6
MOOSE LAKE     CLOUDY    14   3  62 W3        30.15S
HINCKLEY       CLOUDY    14   9  79 W6        30.18F WCI   5
CLOQUET        CLOUDY    12   0  57 W8        30.12F WCI   1
MCGREGOR       CLOUDY    14   3  62 W5        30.16S WCI   6
$$
MNZ071>073-080-081-089-090-097-098-120500-
   Southwest Minnesota

CITY           SKY/WX    TMP DP  RH WIND       PRES   REMARKS
MONTEVIDEO     LGT SNOW  16  10  79 CALM      30.26R
GRANITE FALLS  FLURRIES  18  15  89 W5        30.25S WCI  11
CANBY          CLOUDY    22  19  86 NW9       30.24S WCI  12
MARSHALL       FLURRIES  14  11  87 W9        30.23S WCI   2
REDWOOD FALLS  CLOUDY    17  13  84 W6        30.23S WCI   9
OLIVIA         FLURRIES  18  14  86 W6        30.22S WCI   9
PIPESTONE      FLURRIES  16   9  73 CALM      30.19S
WINDOM         CLOUDY    10   7  85 CALM      30.21S
WORTHINGTON    CLOUDY     7   3  85 W7        30.20S WCI  -5
JACKSON        CLOUDY     9   3  78 W6        30.20F WCI  -1
TRACY          CLOUDY    11   9  88 W5        30.22S WCI   3
SLAYTON        MOCLDY    12  11  96 W6        30.20S WCI   3
$$
MNZ065>067-074>077-082>085-091>093-120500-
   South Central Minnesota

CITY           SKY/WX    TMP DP  RH WIND       PRES   REMARKS
MANKATO        CLOUDY    14   9  79 W8        30.23S WCI   3
NEW ULM        FLURRIES  14  10  85 SW3       30.22F
ST JAMES       CLOUDY    14  10  85 CALM      30.24S
FAIRMONT       CLOUDY    12   7  79 W7        30.22R WCI   2
GLENCOE        CLOUDY    17  13  86 W3        30.22F
FARIBAULT        N/A     14   7  73 SW6       30.22F WCI   5
OWATONNA       CLOUDY    14   7  73 W10       30.22S WCI   1
WASECA         CLOUDY    14   9  79 SW8       30.24S WCI   3
ALBERT LEA     CLOUDY    12   7  79 SW3       30.21S
$$
MNZ078>079-086>088-094>096-120500-
   Southeast Minnesota

CITY           SKY/WX    TMP DP  RH WIND       PRES   REMARKS
ROCHESTER      FLURRIES  11   5  77 SW6       30.20S WCI   1
RED WING       CLOUDY    16   7  67 W7        30.24S WCI   6
STANTON        CLOUDY    15   8  72 CALM      30.22S
DODGE CENTER   FLURRIES  12   7  79 W7        30.19F WCI   2
WINONA         CLOUDY    16   5  62 W3        30.26S
AUSTIN         FLURRIES  10   5  79 CALM      30.21R
PRESTON        CLOUDY    10   2  68 SW5       30.20F WCI   2
$$
ABBREVIATIONS USED IN REMARKS
   TC - TEMPERATURES IN CELSIUS
  WCI - WIND CHILL INDEX
   HX - HEAT INDEX
  VSB - VISIBILITY
$$



USA.gov is the U.S. government's official web portal to all federal, state and local government web resources and services.